Accueil
METAR-TAF:

METAR-TAF

Aéroports :

Manassas Regional Airport (Harry P. Davis Field)

Manassas, Virginie, États-Unis

latitude: 38-43N, longitude: 077-31W, altitude: 59 m

Observation

Le bulletin a été fait il y a 22 minutes, à 21:56 UTC
Vent 12 kt de nord/nord-ouest avec des rafales jusqu'à 17 kt
Température 26°C
Humidité 32%
Pression 1014 hPa
Visibilité: 16.1 km
Ciel clair

METAR: KHEF 162156Z 34012G17KT 10SM CLR 26/08 A2993 RMK AO2 SLP139 T02610083 PNO $

Heure: 18:18 (22:18 UTC)


TAF: absent

Observations et prévisions météorologiques de plus de 4000 aéroports (messages METAR et TAF).

Les stations disponibles sont représentées par des disques jaunes et rouges sur la carte.

Passer la souris dessus pour voir le nom de la station.

Cliquer dessus pour voir les observations et prévisions météorologiques.

Pour changer de carte: cliquez sur les boutons verts avec une croix noire pour zoomer, sur le bouton vert avec un tiret pour effectuer un zoom arrière, ou sur les flèches vertes pour les cartes adjacentes.


METAR-TAF: